Regional Weather Roundup
Issued by NWS

Home | Current Version | Previous Version | Graphics & Text | Print | Product List | Glossary On
Versions: 1 2 3 4 5 6 7 8 9 10 11 12 13 14 15 16 17 18 19 20 21 22 23 24 25 26 27 28 29 30 31 32 33 34 35 36 37 38 39 40 41 42 43 44 45 46 47 48 49 50
000
ASUS43 KFSD 220402
RWRSD

WEATHER ROUNDUP FOR SOUTH DAKOTA
NATIONAL WEATHER SERVICE SIOUX FALLS SD
1000 PM CST SUN JAN 21 2018

NOTE: "FAIR" INDICATES FEW OR NO CLOUDS BELOW 12,000 FEET WITH NO
SIGNIFICANT WEATHER AND/OR OBSTRUCTIONS TO VISIBILITY.


SDZ001>005-009-010-012>017-220500-
NORTHWEST AND NORTH CENTRAL SOUTH DAKOTA

CITY           SKY/WX    TMP DP  RH WIND       PRES   REMARKS
BUFFALO          N/A     23  17  78 W8        29.96S WCI  14
FAITH            N/A     27  24  89 NW10      30.01S WCI  17
MOBRIDGE       CLOUDY    24  21  88 NE7       30.01S WCI  16
$$

SDZ012>016-024>037-041>051-057-063-072>074-220500-
SOUTHWEST AND SOUTH CENTRAL SOUTH DAKOTA

CITY           SKY/WX    TMP DP  RH WIND       PRES   REMARKS
RAPID CTY ARPT CLOUDY    31  21  66 N15       30.00S WCI  20
PIERRE         CLOUDY    29  26  89 N6        30.00F WCI  23
CUSTER         CLOUDY    23  15  71 N8        29.92F WCI  14
ELLSWORTH AFB  CLOUDY    31  23  71 NW13      29.99F WCI  21
PHILIP         CLOUDY    29  27  92 NW9       30.00F WCI  20
PINE RIDGE     CLOUDY    30  24  78 N13       29.96F WCI  20
SPEARFISH        N/A     27  19  74 SW7       30.01F WCI  19
WINNER         FOG       31  29  92 N21       29.94F VSB 1/2 WCI  18
$$

SDZ004>011-016>023-039-040-220500-
NORTHEAST SOUTH DAKOTA

CITY           SKY/WX    TMP DP  RH WIND       PRES   REMARKS
ABERDEEN       CLOUDY    25  23  92 N13       30.05S WCI  14
WATERTOWN      CLOUDY    26  24  92 N17       29.96S WCI  13
BROOKINGS      FLURRIES  30  26  85 NE15      29.93S WCI  19
SISSETON         N/A     26  24  92 N15       30.05S WCI  14
$$

SDZ017-020-022-023-036>040-048>070-220500-
SOUTHEAST SOUTH DAKOTA

CITY           SKY/WX    TMP DP  RH WIND       PRES   REMARKS
SIOUX FALLS    CLOUDY    35  28  75 NE21G28   29.87S WCI  24
HURON          CLOUDY    29  27  92 N14       29.98R WCI  18
CHAMBERLAIN    LGT SNOW  31  31 100 N12       29.95F WCI  21
MITCHELL       LGT SNOW  32  31  96 N21       29.94F FOG     WCI  20
YANKTON        FLURRIES  35  29  78 N22G28    29.82F WCI  23
$$

ABBREVIATIONS USED IN REMARKS
   TC - TEMPERATURE IN CELSIUS
  WCI - WIND CHILL INDEX
   HX - HEAT INDEX
  VSB - VISIBILITY





USA.gov is the U.S. government's official web portal to all federal, state and local government web resources and services.